WZZ9EL UKOO-UDYZ

Flight info

Callsign WZZ9EL
Flight time 1h 46m
Altitude 37000
Route TARKA M854 BOMKI M860 KUGOS/N0445F370 UL851 TBN UP146 YAVUZ UB374 INDUR
Aircraft A321/M-SDE3FGHIRWY/LB1

Departure

Time 2026-04-15 12:38
Airport Odesa International Airport (UKOO)

Arrival

Time 2026-04-15 14:24
Airport Zvartnots International Airport (UDYZ)
Time Latitude Longitude Altitude Speed Heading
2026-04-15 12:21 46.44186 30.67376 177 ft 0 kts 81°
2026-04-15 12:27 46.44186 30.67375 177 ft 0 kts 81°
2026-04-15 12:27 46.44183 30.67355 177 ft 2 kts 81°
2026-04-15 12:27 46.44181 30.67333 177 ft 2 kts 94°
2026-04-15 12:27 46.44185 30.67312 177 ft 2 kts 116°
2026-04-15 12:28 46.44193 30.67294 177 ft 2 kts 136°
2026-04-15 12:28 46.44205 30.67282 177 ft 2 kts 157°
2026-04-15 12:28 46.44214 30.67278 177 ft 1 kts 170°
2026-04-15 12:28 46.44220 30.67277 177 ft 0 kts 171°
2026-04-15 12:30 46.44214 30.67278 177 ft 2 kts 171°
2026-04-15 12:30 46.44177 30.67287 177 ft 7 kts 170°
2026-04-15 12:31 46.44120 30.67302 177 ft 8 kts 171°
2026-04-15 12:31 46.44058 30.67317 177 ft 8 kts 171°
2026-04-15 12:31 46.44002 30.67291 177 ft 9 kts 235°
2026-04-15 12:31 46.43981 30.67195 177 ft 10 kts 254°
2026-04-15 12:32 46.43958 30.67085 177 ft 11 kts 253°
2026-04-15 12:32 46.43934 30.66969 177 ft 12 kts 254°
2026-04-15 12:32 46.43909 30.66852 177 ft 11 kts 244°
2026-04-15 12:32 46.43837 30.66808 177 ft 12 kts 170°
2026-04-15 12:33 46.43739 30.66847 177 ft 18 kts 163°
2026-04-15 12:33 46.43595 30.66909 177 ft 25 kts 163°
2026-04-15 12:33 46.43414 30.66987 177 ft 27 kts 163°
2026-04-15 12:33 46.43236 30.67063 177 ft 25 kts 163°
2026-04-15 12:34 46.43070 30.67135 177 ft 24 kts 164°
2026-04-15 12:34 46.42909 30.67204 177 ft 23 kts 163°
2026-04-15 12:34 46.42758 30.67270 177 ft 22 kts 163°
2026-04-15 12:34 46.42610 30.67334 177 ft 21 kts 163°
2026-04-15 12:35 46.42467 30.67396 177 ft 21 kts 164°
2026-04-15 12:35 46.42318 30.67461 177 ft 23 kts 163°
2026-04-15 12:35 46.42149 30.67534 177 ft 27 kts 163°
2026-04-15 12:35 46.41962 30.67615 177 ft 28 kts 163°
2026-04-15 12:36 46.41777 30.67694 177 ft 26 kts 164°
2026-04-15 12:36 46.41606 30.67768 177 ft 21 kts 164°
2026-04-15 12:36 46.41507 30.67835 177 ft 13 kts 140°
2026-04-15 12:36 46.41456 30.67909 177 ft 8 kts 149°
2026-04-15 12:37 46.41418 30.67874 177 ft 8 kts 275°
2026-04-15 12:37 46.41470 30.67829 177 ft 13 kts 342°
2026-04-15 12:37 46.41718 30.67720 177 ft 71 kts 343°
2026-04-15 12:37 46.42438 30.67409 178 ft 141 kts 343°
2026-04-15 12:38 46.43538 30.66938 366 ft 179 kts 342°
2026-04-15 12:38 46.44750 30.66419 1074 ft 184 kts 342°
2026-04-15 12:38 46.45955 30.65888 1872 ft 182 kts 342°
2026-04-15 12:38 46.47147 30.65368 2393 ft 185 kts 342°
2026-04-15 12:39 46.48435 30.64807 2676 ft 199 kts 342°
2026-04-15 12:39 46.49817 30.64207 2992 ft 215 kts 342°
2026-04-15 12:39 46.51294 30.63565 3337 ft 230 kts 342°
2026-04-15 12:39 46.52909 30.62861 3667 ft 251 kts 342°
2026-04-15 12:40 46.54671 30.62440 4061 ft 269 kts
2026-04-15 12:40 46.56447 30.63312 4739 ft 275 kts 34°
2026-04-15 12:40 46.57722 30.65336 5519 ft 275 kts 64°
2026-04-15 12:40 46.58363 30.67939 6274 ft 278 kts 75°
2026-04-15 12:41 46.58883 30.70687 6805 ft 281 kts 75°
2026-04-15 12:41 46.59302 30.73446 7033 ft 282 kts 88°
2026-04-15 12:41 46.58963 30.76233 7045 ft 279 kts 117°
2026-04-15 12:41 46.57778 30.78396 7140 ft 281 kts 146°
2026-04-15 12:42 46.55994 30.79573 7807 ft 282 kts 165°
2026-04-15 12:42 46.54139 30.80335 8729 ft 280 kts 166°
2026-04-15 12:42 46.52253 30.81103 9480 ft 284 kts 166°
2026-04-15 12:42 46.50353 30.81896 10142 ft 290 kts 166°
2026-04-15 12:43 46.48381 30.82731 10593 ft 304 kts 165°
2026-04-15 12:43 46.46289 30.83625 10913 ft 323 kts 165°
2026-04-15 12:43 46.44068 30.84577 11225 ft 340 kts 165°
2026-04-15 12:43 46.41750 30.85572 11644 ft 353 kts 165°
2026-04-15 12:44 46.39404 30.86580 12258 ft 359 kts 165°
2026-04-15 12:44 46.36999 30.87612 12893 ft 363 kts 165°
2026-04-15 12:44 46.34560 30.88671 13588 ft 366 kts 165°
2026-04-15 12:44 46.32141 30.89752 14294 ft 367 kts 165°
2026-04-15 12:45 46.29717 30.90843 14909 ft 371 kts 165°
2026-04-15 12:45 46.27223 30.91962 15514 ft 375 kts 165°
2026-04-15 12:45 46.24735 30.93077 16106 ft 379 kts 165°
2026-04-15 12:45 46.22221 30.94200 16690 ft 383 kts 165°
2026-04-15 12:46 46.19649 30.95347 17266 ft 387 kts 165°
2026-04-15 12:46 46.17094 30.96485 17823 ft 390 kts 165°
2026-04-15 12:46 46.14504 30.97636 18369 ft 394 kts 165°
2026-04-15 12:46 46.11858 30.98812 18925 ft 397 kts 165°
2026-04-15 12:47 46.09241 30.99973 19465 ft 400 kts 165°
2026-04-15 12:47 46.06556 31.01163 19998 ft 403 kts 166°
2026-04-15 12:47 46.03887 31.02344 20509 ft 406 kts 166°
2026-04-15 12:47 46.01187 31.03539 21027 ft 408 kts 166°
2026-04-15 12:48 45.98467 31.04742 21528 ft 411 kts 166°
2026-04-15 12:48 45.95741 31.05946 22023 ft 413 kts 166°
2026-04-15 12:48 45.92999 31.07155 22494 ft 416 kts 166°
2026-04-15 12:48 45.90238 31.08372 22955 ft 418 kts 166°
2026-04-15 12:49 45.87441 31.09710 23393 ft 422 kts 162°
2026-04-15 12:49 45.84723 31.11283 23809 ft 427 kts 158°
2026-04-15 12:49 45.82024 31.13115 24235 ft 430 kts 156°
2026-04-15 12:49 45.79357 31.14997 24652 ft 432 kts 156°
2026-04-15 12:50 45.76677 31.16891 25048 ft 435 kts 156°
2026-04-15 12:50 45.73937 31.18820 25435 ft 437 kts 156°
2026-04-15 12:50 45.71218 31.20726 25821 ft 439 kts 156°
2026-04-15 12:50 45.68459 31.22655 26206 ft 442 kts 156°
2026-04-15 12:51 45.65717 31.24568 26564 ft 444 kts 156°
2026-04-15 12:51 45.62929 31.26508 26926 ft 446 kts 156°
2026-04-15 12:51 45.60120 31.28461 27288 ft 448 kts 156°
2026-04-15 12:51 45.57338 31.30394 27628 ft 451 kts 157°
2026-04-15 12:52 45.54535 31.32338 27955 ft 453 kts 157°
2026-04-15 12:52 45.51668 31.34324 28281 ft 455 kts 157°
2026-04-15 12:52 45.48826 31.36290 28608 ft 457 kts 157°
2026-04-15 12:52 45.45969 31.38264 28925 ft 459 kts 157°
2026-04-15 12:53 45.43087 31.40253 29228 ft 462 kts 157°
2026-04-15 12:53 45.40215 31.42240 29529 ft 464 kts 157°
2026-04-15 12:53 45.37333 31.44289 29812 ft 466 kts 156°
2026-04-15 12:53 45.34429 31.46375 30090 ft 468 kts 156°
2026-04-15 12:54 45.31517 31.48468 30371 ft 470 kts 156°
2026-04-15 12:54 45.28619 31.50546 30649 ft 472 kts 156°
2026-04-15 12:54 45.25668 31.52655 30945 ft 473 kts 156°
2026-04-15 12:54 45.22733 31.54749 31326 ft 472 kts 156°
2026-04-15 12:55 45.19830 31.56817 31707 ft 470 kts 156°
2026-04-15 12:55 45.16921 31.58886 32061 ft 470 kts 157°
2026-04-15 12:55 45.13996 31.60962 32411 ft 469 kts 157°
2026-04-15 12:55 45.11093 31.63021 32752 ft 468 kts 157°
2026-04-15 12:56 45.08176 31.65086 33090 ft 467 kts 158°
2026-04-15 12:56 45.05279 31.67135 33421 ft 466 kts 158°
2026-04-15 12:56 45.02372 31.69189 33742 ft 465 kts 158°
2026-04-15 12:56 44.99501 31.71213 34040 ft 465 kts 158°
2026-04-15 12:57 44.96605 31.73253 34331 ft 464 kts 158°
2026-04-15 12:57 44.93755 31.75258 34601 ft 464 kts 158°
2026-04-15 12:57 44.90852 31.77297 34873 ft 464 kts 158°
2026-04-15 12:57 44.87969 31.79322 35138 ft 464 kts 158°
2026-04-15 12:58 44.85092 31.81340 35389 ft 463 kts 158°
2026-04-15 12:58 44.82221 31.83352 35609 ft 464 kts 158°
2026-04-15 12:58 44.79320 31.85370 35796 ft 465 kts 158°
2026-04-15 12:58 44.76424 31.87362 35965 ft 466 kts 158°
2026-04-15 12:59 44.70583 31.91361 36324 ft 468 kts 158°
2026-04-15 12:59 44.67656 31.93363 36486 ft 469 kts 158°
2026-04-15 12:59 44.64762 31.95340 36629 ft 471 kts 158°
2026-04-15 13:00 44.61794 31.97368 36782 ft 472 kts 158°
2026-04-15 13:00 44.58861 31.99384 36938 ft 473 kts 157°
2026-04-15 13:00 44.55964 32.01582 37084 ft 476 kts 153°
2026-04-15 13:00 44.53150 32.04030 37202 ft 480 kts 150°
2026-04-15 13:01 44.47812 32.09694 37210 ft 484 kts 142°
2026-04-15 13:01 44.42701 32.15822 37211 ft 485 kts 142°
2026-04-15 13:02 44.37604 32.21907 37211 ft 485 kts 142°
2026-04-15 13:02 44.32479 32.27978 37211 ft 485 kts 142°
2026-04-15 13:03 44.27313 32.34074 37211 ft 485 kts 142°
2026-04-15 13:03 44.22192 32.40100 37211 ft 485 kts 142°
2026-04-15 13:04 44.17051 32.46135 37212 ft 485 kts 142°
2026-04-15 13:04 44.11924 32.52250 37212 ft 485 kts 141°
2026-04-15 13:05 44.06839 32.58419 37212 ft 484 kts 141°
2026-04-15 13:05 44.01776 32.64530 37212 ft 484 kts 141°
2026-04-15 13:06 43.96679 32.70653 37210 ft 485 kts 142°
2026-04-15 13:06 43.91581 32.76757 37211 ft 485 kts 142°
2026-04-15 13:07 43.86482 32.82857 37211 ft 485 kts 142°
2026-04-15 13:07 43.81390 32.88933 37211 ft 485 kts 142°
2026-04-15 13:08 43.76265 32.95029 37211 ft 485 kts 142°
2026-04-15 13:08 43.71154 33.01092 37211 ft 484 kts 142°
2026-04-15 13:09 43.66076 33.07102 37211 ft 484 kts 142°
2026-04-15 13:09 43.60941 33.13166 37211 ft 484 kts 142°
2026-04-15 13:10 43.55821 33.19186 37211 ft 484 kts 142°
2026-04-15 13:10 43.50731 33.25149 37211 ft 484 kts 142°
2026-04-15 13:11 43.45598 33.31146 37212 ft 484 kts 142°
2026-04-15 13:11 43.40467 33.37128 37211 ft 483 kts 142°
2026-04-15 13:12 43.35362 33.43067 37211 ft 483 kts 142°
2026-04-15 13:12 43.30219 33.49036 37211 ft 484 kts 142°
2026-04-15 13:13 43.25086 33.54979 37211 ft 484 kts 142°
2026-04-15 13:13 43.19933 33.60931 37212 ft 484 kts 142°
2026-04-15 13:14 43.14800 33.66849 37210 ft 484 kts 143°
2026-04-15 13:14 43.09644 33.72778 37211 ft 484 kts 143°
2026-04-15 13:15 43.04508 33.78668 37211 ft 484 kts 143°
2026-04-15 13:15 42.99375 33.84543 37211 ft 484 kts 143°
2026-04-15 13:16 42.94188 33.90465 37210 ft 484 kts 143°
2026-04-15 13:16 42.89046 33.96321 37210 ft 485 kts 143°
2026-04-15 13:17 42.83888 34.02281 37211 ft 486 kts 140°
2026-04-15 13:17 42.79350 34.09114 37211 ft 490 kts 128°
2026-04-15 13:18 42.75802 34.17010 37211 ft 493 kts 116°
2026-04-15 13:18 42.73215 34.25624 37212 ft 494 kts 111°
2026-04-15 13:19 42.70804 34.34407 37211 ft 493 kts 111°
2026-04-15 13:19 42.68379 34.43105 37211 ft 493 kts 111°
2026-04-15 13:20 42.65933 34.51760 37211 ft 493 kts 111°
2026-04-15 13:20 42.63455 34.60464 37211 ft 493 kts 111°
2026-04-15 13:21 42.60974 34.69144 37210 ft 493 kts 112°
2026-04-15 13:21 42.58499 34.77772 37214 ft 493 kts 112°
2026-04-15 13:22 42.56009 34.86427 37224 ft 493 kts 112°
2026-04-15 13:22 42.53506 34.95094 37231 ft 493 kts 112°
2026-04-15 13:23 42.50993 35.03766 37234 ft 493 kts 112°
2026-04-15 13:23 42.48480 35.12410 37235 ft 493 kts 112°
2026-04-15 13:24 42.45961 35.21043 37236 ft 493 kts 111°
2026-04-15 13:24 42.43441 35.29653 37235 ft 493 kts 111°
2026-04-15 13:25 42.40910 35.38273 37236 ft 494 kts 111°
2026-04-15 13:25 42.38377 35.46869 37236 ft 494 kts 111°
2026-04-15 13:26 42.35824 35.55504 37236 ft 495 kts 111°
2026-04-15 13:26 42.33260 35.64146 37236 ft 495 kts 111°
2026-04-15 13:27 42.30698 35.72759 37235 ft 495 kts 112°
2026-04-15 13:27 42.28121 35.81386 37236 ft 495 kts 112°
2026-04-15 13:28 42.25550 35.89963 37234 ft 496 kts 112°
2026-04-15 13:28 42.22963 35.98570 37236 ft 496 kts 112°
2026-04-15 13:29 42.20365 36.07185 37236 ft 496 kts 112°
2026-04-15 13:29 42.17751 36.15824 37236 ft 496 kts 112°
2026-04-15 13:30 42.15142 36.24416 37236 ft 495 kts 112°
2026-04-15 13:30 42.12541 36.32954 37236 ft 495 kts 112°
2026-04-15 13:31 42.09927 36.41505 37236 ft 495 kts 112°
2026-04-15 13:31 42.07290 36.50105 37236 ft 494 kts 112°
2026-04-15 13:32 42.04682 36.58583 37236 ft 494 kts 112°
2026-04-15 13:32 42.02046 36.67125 37235 ft 493 kts 113°
2026-04-15 13:33 41.99412 36.75630 37232 ft 493 kts 113°
2026-04-15 13:33 41.96771 36.84132 37235 ft 495 kts 113°
2026-04-15 13:34 41.94105 36.92681 37236 ft 495 kts 113°
2026-04-15 13:34 41.91452 37.01157 37236 ft 495 kts 113°
2026-04-15 13:35 41.88779 37.09692 37236 ft 494 kts 113°
2026-04-15 13:35 41.86115 37.18186 37236 ft 493 kts 113°
2026-04-15 13:36 41.83446 37.26656 37236 ft 492 kts 113°
2026-04-15 13:36 41.80789 37.35061 37236 ft 491 kts 113°
2026-04-15 13:37 41.78121 37.43472 37236 ft 490 kts 113°
2026-04-15 13:37 41.75462 37.51825 37239 ft 489 kts 113°
2026-04-15 13:38 41.72786 37.60203 37251 ft 489 kts 113°
2026-04-15 13:38 41.70106 37.68577 37257 ft 488 kts 114°
2026-04-15 13:39 41.67437 37.76911 37263 ft 488 kts 114°
2026-04-15 13:39 41.64772 37.85203 37264 ft 487 kts 114°
2026-04-15 13:40 41.62076 37.93556 37264 ft 487 kts 114°
2026-04-15 13:40 41.59404 38.01809 37264 ft 487 kts 114°
2026-04-15 13:41 41.56691 38.10160 37264 ft 487 kts 114°
2026-04-15 13:41 41.53999 38.18424 37264 ft 488 kts 114°
2026-04-15 13:42 41.51291 38.26711 37264 ft 488 kts 114°
2026-04-15 13:42 41.48570 38.35010 37264 ft 489 kts 113°
2026-04-15 13:43 41.45849 38.43289 37264 ft 490 kts 113°
2026-04-15 13:43 41.43104 38.51612 37263 ft 490 kts 113°
2026-04-15 13:44 41.40365 38.59890 37264 ft 492 kts 113°
2026-04-15 13:44 41.37581 38.68273 37262 ft 493 kts 114°
2026-04-15 13:45 41.34811 38.76587 37263 ft 493 kts 114°
2026-04-15 13:47 41.23823 39.10066 37264 ft 495 kts 113°
2026-04-15 13:47 41.21063 39.18397 37264 ft 495 kts 114°
2026-04-15 13:48 41.18195 39.26671 37264 ft 495 kts 115°
2026-04-15 13:48 41.15274 39.34987 37264 ft 496 kts 115°
2026-04-15 13:49 41.12380 39.43227 37264 ft 496 kts 115°
2026-04-15 13:49 41.09465 39.51515 37264 ft 496 kts 115°
2026-04-15 13:50 41.06559 39.59755 37265 ft 496 kts 115°
2026-04-15 13:50 41.03633 39.68026 37262 ft 497 kts 115°
2026-04-15 13:51 41.00689 39.76318 37263 ft 497 kts 115°
2026-04-15 13:51 40.97766 39.84641 37263 ft 498 kts 115°
2026-04-15 13:52 40.94910 39.92948 37264 ft 498 kts 114°
2026-04-15 13:52 40.92016 40.01330 37264 ft 498 kts 114°
2026-04-15 13:53 40.89120 40.09666 37262 ft 498 kts 114°
2026-04-15 13:53 40.86224 40.17980 37263 ft 499 kts 114°
2026-04-15 13:54 40.83324 40.26273 37264 ft 499 kts 114°
2026-04-15 13:54 40.80397 40.34616 37264 ft 499 kts 114°
2026-04-15 13:55 40.77479 40.42928 37264 ft 499 kts 114°
2026-04-15 13:55 40.74564 40.51212 37263 ft 499 kts 114°
2026-04-15 13:56 40.71627 40.59527 37263 ft 500 kts 114°
2026-04-15 13:56 40.68677 40.67850 37262 ft 499 kts 115°
2026-04-15 13:57 40.65750 40.76086 37264 ft 499 kts 115°
2026-04-15 13:57 40.62807 40.84342 37264 ft 499 kts 115°
2026-04-15 13:58 40.59843 40.92628 37264 ft 498 kts 115°
2026-04-15 13:58 40.56894 41.00857 37264 ft 498 kts 115°
2026-04-15 13:59 40.53924 41.09115 37264 ft 498 kts 115°
2026-04-15 13:59 40.50959 41.17339 37264 ft 498 kts 115°
2026-04-15 14:00 40.47993 41.25534 37263 ft 498 kts 115°
2026-04-15 14:00 40.45013 41.33754 37264 ft 498 kts 115°
2026-04-15 14:01 40.40522 41.46092 37265 ft 498 kts 115°
2026-04-15 14:02 40.37543 41.54253 37264 ft 498 kts 115°
2026-04-15 14:02 40.34546 41.62436 37264 ft 498 kts 115°
2026-04-15 14:03 40.31543 41.70612 37263 ft 498 kts 115°
2026-04-15 14:03 40.28516 41.78826 37264 ft 498 kts 115°
2026-04-15 14:04 40.25510 41.86965 37139 ft 499 kts 115°
2026-04-15 14:04 40.23989 41.91073 36887 ft 496 kts 115°
2026-04-15 14:04 40.22499 41.95095 36639 ft 493 kts 115°
2026-04-15 14:04 40.20993 41.99154 36386 ft 490 kts 115°
2026-04-15 14:05 40.19519 42.03120 36135 ft 487 kts 116°
2026-04-15 14:05 40.18032 42.07114 35770 ft 486 kts 116°
2026-04-15 14:05 40.16562 42.11060 35221 ft 486 kts 116°
2026-04-15 14:05 40.15083 42.15023 34541 ft 488 kts 116°
2026-04-15 14:06 40.13582 42.19038 33796 ft 490 kts 116°
2026-04-15 14:06 40.12087 42.23030 33022 ft 493 kts 116°
2026-04-15 14:06 40.10563 42.27087 32189 ft 497 kts 116°
2026-04-15 14:06 40.09037 42.31148 31319 ft 501 kts 116°
2026-04-15 14:07 40.07513 42.35198 30428 ft 505 kts 115°
2026-04-15 14:07 40.06023 42.39324 29745 ft 502 kts 110°
2026-04-15 14:07 40.05021 42.43689 29163 ft 495 kts 98°
2026-04-15 14:07 40.04687 42.48098 28633 ft 485 kts 86°
2026-04-15 14:08 40.04861 42.52468 28127 ft 477 kts 81°
2026-04-15 14:08 40.05159 42.56720 27534 ft 473 kts 80°
2026-04-15 14:08 40.05477 42.60986 26942 ft 470 kts 80°
2026-04-15 14:08 40.05775 42.65223 26362 ft 466 kts 81°
2026-04-15 14:09 40.06051 42.69423 25788 ft 462 kts 81°
2026-04-15 14:09 40.06311 42.73591 25223 ft 458 kts 81°
2026-04-15 14:09 40.06561 42.77721 24662 ft 454 kts 81°
2026-04-15 14:09 40.06804 42.81808 24111 ft 450 kts 81°
2026-04-15 14:10 40.07044 42.85871 23563 ft 446 kts 81°
2026-04-15 14:10 40.07282 42.89916 23018 ft 442 kts 81°
2026-04-15 14:10 40.07516 42.93883 22485 ft 439 kts 81°
2026-04-15 14:10 40.07751 42.97871 21922 ft 436 kts 81°
2026-04-15 14:11 40.07982 43.01789 21360 ft 434 kts 81°
2026-04-15 14:11 40.08210 43.05699 20790 ft 431 kts 81°
2026-04-15 14:11 40.08436 43.09586 20222 ft 430 kts 81°
2026-04-15 14:11 40.08662 43.13511 19647 ft 428 kts 81°
2026-04-15 14:12 40.08880 43.17357 19083 ft 426 kts 81°
2026-04-15 14:12 40.09096 43.21187 18522 ft 423 kts 81°
2026-04-15 14:12 40.09310 43.25023 17964 ft 421 kts 81°
2026-04-15 14:12 40.09521 43.28804 17415 ft 418 kts 81°
2026-04-15 14:13 40.09732 43.32600 16861 ft 416 kts 82°
2026-04-15 14:13 40.09941 43.36369 16314 ft 413 kts 82°
2026-04-15 14:13 40.10148 43.40102 15800 ft 409 kts 82°
2026-04-15 14:13 40.10351 43.43802 15286 ft 405 kts 82°
2026-04-15 14:14 40.10549 43.47450 14744 ft 403 kts 83°
2026-04-15 14:14 40.10744 43.51095 14312 ft 397 kts 83°
2026-04-15 14:14 40.10928 43.54629 14206 ft 382 kts 83°
2026-04-15 14:14 40.11101 43.57996 14203 ft 365 kts 83°
2026-04-15 14:15 40.11270 43.61257 14202 ft 349 kts 82°
2026-04-15 14:15 40.11433 43.64339 14191 ft 334 kts 81°
2026-04-15 14:15 40.11874 43.67253 13950 ft 322 kts 66°
2026-04-15 14:15 40.12780 43.69893 13671 ft 314 kts 58°
2026-04-15 14:16 40.13795 43.72391 13406 ft 308 kts 57°
2026-04-15 14:16 40.14813 43.74860 13063 ft 304 kts 58°
2026-04-15 14:16 40.15645 43.77359 12660 ft 304 kts 73°
2026-04-15 14:16 40.15826 43.80129 12212 ft 304 kts 90°
2026-04-15 14:17 40.15710 43.82865 11769 ft 302 kts 93°
2026-04-15 14:17 40.15551 43.85587 11315 ft 300 kts 93°
2026-04-15 14:17 40.15401 43.88322 10828 ft 299 kts 93°
2026-04-15 14:17 40.15267 43.91022 10325 ft 298 kts 92°
2026-04-15 14:18 40.15142 43.93718 9824 ft 296 kts 92°
2026-04-15 14:18 40.15023 43.96382 9327 ft 295 kts 93°
2026-04-15 14:18 40.14904 43.99048 8829 ft 294 kts 93°
2026-04-15 14:18 40.14785 44.01727 8368 ft 290 kts 93°
2026-04-15 14:19 40.14685 44.04335 7894 ft 288 kts 91°
2026-04-15 14:19 40.14647 44.06949 7397 ft 286 kts 90°
2026-04-15 14:19 40.14635 44.09532 6955 ft 280 kts 90°
2026-04-15 14:19 40.14635 44.12014 6590 ft 271 kts 89°
2026-04-15 14:20 40.14639 44.14434 6233 ft 259 kts 89°
2026-04-15 14:20 40.14644 44.16715 5886 ft 244 kts 89°
2026-04-15 14:20 40.14649 44.18880 5578 ft 233 kts 89°
2026-04-15 14:20 40.14654 44.20714 5402 ft 219 kts 89°
2026-04-15 14:21 40.14659 44.22639 5094 ft 209 kts 90°
2026-04-15 14:21 40.14666 44.24498 4816 ft 197 kts 90°
2026-04-15 14:21 40.14671 44.26244 4527 ft 184 kts 90°
2026-04-15 14:21 40.14677 44.27834 4267 ft 168 kts 91°
2026-04-15 14:22 40.14684 44.29281 4038 ft 152 kts 91°
2026-04-15 14:22 40.14690 44.30629 3842 ft 143 kts 91°
2026-04-15 14:22 40.14690 44.31911 3658 ft 142 kts 92°
2026-04-15 14:22 40.14702 44.33217 3483 ft 141 kts 91°
2026-04-15 14:23 40.14717 44.34501 3302 ft 141 kts 91°
2026-04-15 14:23 40.14723 44.35777 3109 ft 140 kts 91°
2026-04-15 14:23 40.14723 44.37051 2929 ft 139 kts 92°
2026-04-15 14:23 40.14719 44.38273 2846 ft 117 kts 89°
2026-04-15 14:24 40.14723 44.39111 2845 ft 67 kts 89°
2026-04-15 14:24 40.14724 44.39578 2845 ft 43 kts 89°
2026-04-15 14:24 40.14724 44.39847 2845 ft 21 kts 89°
2026-04-15 14:24 40.14729 44.39983 2845 ft 12 kts 69°
2026-04-15 14:25 40.14798 44.40036 2845 ft 11 kts 355°
2026-04-15 14:25 40.14874 44.40034 2845 ft 10 kts 359°
2026-04-15 14:25 40.14940 44.40035 2845 ft 8 kts
2026-04-15 14:25 40.14973 44.40081 2845 ft 7 kts 79°
2026-04-15 14:26 40.14976 44.40151 2845 ft 8 kts 90°
2026-04-15 14:26 40.14976 44.40221 2845 ft 6 kts 79°
2026-04-15 14:26 40.15004 44.40243 2845 ft 5 kts 353°
2026-04-15 14:26 40.15030 44.40243 2845 ft 2 kts 359°
2026-04-15 14:27 40.15032 44.40243 2845 ft 0 kts 359°